Location: ????????
(41.2031°N, 22.5756°E)
Time: 04:55:49
(UTC+00:00)

SL-08 R/B - Pass Details

Date: 01 December 2020
Orbit: 950 x 1018 km, 82.9° (Epoch: 20 January)

Event Time Altitude Azimuth Distance (km) Brightness Sun altitude
Rises 16:19:52 0° 354° (N) 3,646 7.4 -14.4°
Reaches altitude 10° 16:22:24 10° 357° (N) 2,691 6.7 -14.9°
Maximum altitude 16:28:31 69° 81° (E) 1,013 4.4 -16.0°
Drops below altitude 10° 16:34:35 10° 165° (SSE) 2,668 6.8 -17.1°
Sets 16:37:05 0° 167° (SSE) 3,613 7.5 -17.5°
